Hourly Data Report for November 14, 2020

VICTORIA UNIVERSITY CS
BRITISH COLUMBIA
Current Station Operator: ECCC - MSC

48°27'25.200" N
123°18'16.600" W
60.10 m
1018598
71783
WYJ

Download Data

Hourly Data (November 2020)
Hourly Data Report for November 14, 2020
TIME
LST
Temp Definition
°C
Dew Point Definition
°C
Rel Hum Definition
%
Precip. Amount Definition
mm

Wind Dir Definition
10's deg

Wind Spd Definition
km/h
Visibility Definition
km
Stn Press Definition
kPa
Hmdx Definition


Wind Chill Definition


Weather Definition


00:00 5.7 3.2 84 0.0 25 12   100.27     LegendNANA
01:00 5.6 3.4 86 0.0 25 9   100.36     LegendNANA
02:00 6.0 4.3 89 0.0 25 9   100.43     LegendNANA
03:00 5.3 3.2 86 0.0 24 11   100.53     LegendNANA
04:00 4.9 3.3 89 0.0 23 9   100.61     LegendNANA
05:00 5.6 3.1 84 0.0 23 10   100.66     LegendNANA
06:00 4.8 3.0 88 0.0 22 7   100.73     LegendNANA
07:00 4.5 3.1 91 0.0 25 6   100.83     LegendNANA
08:00 5.2 3.7 90 0.0 25 8   100.88     LegendNANA
09:00 6.3 4.5 88 0.0 24 7   100.91     LegendNANA
10:00 7.0 4.7 85 0.0 16 5   100.98     LegendNANA
11:00 6.9 4.6 85 0.0 15 3   100.96     LegendNANA
12:00 6.7 4.1 84 0.0 11 3   100.87     LegendNANA
13:00 6.6 4.7 88 0.0 10 3   100.73     LegendNANA
14:00 7.0 4.8 86 0.0 12 4   100.53     LegendNANA
15:00 7.4 4.2 80 0.0 11 3   100.35     LegendNANA
16:00 6.9 4.4 84 0.0 11 6   100.16     LegendNANA
17:00 6.7 5.0 89 0.0 11 6   99.91     LegendNANA
18:00 6.0 4.2 88 0.0 12 7   99.71     LegendNANA
19:00 5.9 4.3 90 0.0 12 6   99.57     LegendNANA
20:00 5.8 4.2 89 0.0 12 7   99.50     LegendNANA
21:00 6.7 4.6 87 0.0 13 8   99.46     LegendNANA
22:00 6.3 4.7 90 0.0 14 8   99.55     LegendNANA
23:00 6.4 5.4 93 0.0 15 8   99.61     LegendNANA

Notes on Data Quality.

Legend

  • E = Estimated
  • M = Missing
  • NA = Not Available*
  • [empty] = Indicates an unobserved value
Date modified: